FW4331 Weather Reports


time (UTC)temp
F
wind
direction
speed
knots
gust
knots
rain 1hr
in
rain 24hr
in
rain mn
in
humidity
%
barometer
mb
20260506103007 0 0.0 0.0 0.00 0.00 0.00 1007.4
20260506101601 64 219 1.7 7.0 0.00 0.00 0.00 56 1007.6
20260506100057 65 222 1.7 7.0 0.00 0.00 0.00 55 1007.5
20260506094555 65 209 2.6 9.6 0.00 0.00 0.00 54 1007.5
20260506093051 65 204 1.7 8.7 0.00 0.00 0.00 54 1007.7
20260506091547 66 235 6.1 11.3 0.00 0.00 0.00 53 1007.6
20260506090047 66 249 5.2 12.2 0.00 0.00 0.00 53 1007.9
20260506084539 66 266 2.6 9.6 0.00 0.00 0.00 52 1008.1
20260506083041 66 200 1.7 14.8 0.00 0.00 0.00 52 1008.1
20260506081533 67 243 4.3 10.4 0.00 0.00 0.00 51 1008.0
20260506073020 67 266 1.7 10.4 0.00 0.00 0.00 49 1007.9
20260506071520 67 231 4.3 10.4 0.00 0.00 0.00 49 1007.9
20260506061601 68 150 0.9 11.3 0.00 0.00 0.00 46 1008.6
20260506044541 70 181 3.5 11.3 0.00 0.00 0.00 42 1009.1
20260506043048 70 224 1.7 8.7 0.00 0.00 0.00 41 1009.0
20260506041539 70 187 3.5 10.4 0.00 0.00 0.00 41 1008.9
20260506040044 70 261 1.7 11.3 0.00 0.00 0.00 41 1008.9
20260506034532 69 223 0.0 7.0 0.00 0.00 0.00 41 1008.9
20260506033029 70 235 0.9 6.1 0.00 0.00 0.00 40 1009.0
20260506031527 69 231 0.9 7.0 0.00 0.00 0.00 39 1009.0
20260506030025 70 226 0.0 6.1 0.00 0.00 0.00 38 1008.9
20260506024533 70 224 1.7 7.0 0.00 0.00 0.00 37 1009.1
20260506023022 70 231 1.7 4.3 0.00 0.00 0.00 35 1008.9
20260506021538 71 238 0.0 5.2 0.00 0.00 0.00 34 1009.0
20260506020018 71 224 1.7 6.1 0.00 0.00 0.00 33 1009.1
20260506014523 72 233 0.0 4.3 0.00 0.00 0.00 32 1008.9
20260506013014 73 186 1.7 6.1 0.00 0.00 0.00 29 1008.7
20260506011521 74 201 1.7 6.1 0.00 0.00 0.00 28 1008.6
20260506010012 74 219 2.6 10.4 0.00 0.00 0.00 27 1008.4
20260506004508 74 262 2.6 8.7 0.00 0.00 0.00 27 1008.2
20260506003007 75 254 2.6 6.1 0.00 0.00 0.00 26 1008.1
20260506001504 76 193 0.9 8.7 0.00 0.00 0.00 24 1007.8
20260506000003 76 251 2.6 7.8 0.00 0.00 0.00 23 1007.8
20260505234503 77 219 2.6 7.8 0.00 0.00 0.00 22 1007.6
20260505233059 78 238 0.9 10.4 0.00 0.00 0.00 20 1007.6
20260505231557 79 243 7.8 13.0 0.00 0.00 0.00 18 1007.7
20260505230055 80 272 7.8 13.9 0.00 0.00 0.00 16 1007.9
20260505224554 80 236 4.3 11.3 0.00 0.00 0.00 19 1007.7
20260505223104 81 180 3.5 12.2 0.00 0.00 0.00 18 1007.6
20260505221549 81 176 7.0 17.4 0.00 0.00 0.00 17 1007.7
20260505220148 81 246 10.4 17.4 0.00 0.00 0.00 16 1007.7
20260505214553 81 215 6.1 16.5 0.00 0.00 0.00 17 1007.7
20260505213043 82 233 6.1 13.9 0.00 0.00 0.00 18 1007.5
20260505211548 83 252 6.1 19.1 0.00 0.00 0.00 18 1007.4
20260505210038 83 238 6.1 16.5 0.00 0.00 0.00 18 1007.3
20260505204537 82 219 8.7 19.1 0.00 0.00 0.00 17 1007.5
20260505203046 82 240 10.4 18.2 0.00 0.00 0.00 15 1007.4
20260505201529 82 235 7.8 20.0 0.00 0.00 0.00 17 1007.5
20260505200025 82 229 7.8 17.4 0.00 0.00 0.00 16 1007.6
20260505194523 83 255 7.8 20.9 0.00 0.00 0.00 16 1007.7
20260505193020 83 249 7.0 20.9 0.00 0.00 0.00 15 1007.6
20260505191517 83 199 10.4 18.2 0.00 0.00 0.00 15 1008.0
20260505190014 82 187 10.4 19.1 0.00 0.00 0.00 16 1008.3
20260505184516 83 240 7.8 20.9 0.00 0.00 0.00 17 1008.4
20260505183005 82 237 8.7 17.4 0.00 0.00 0.00 19 1008.6
20260505181502 82 221 5.2 13.0 0.00 0.00 0.00 22 1008.8
20260505180109 82 215 7.8 16.5 0.00 0.00 0.00 22 1009.1
20260505174554 81 242 7.8 17.4 0.00 0.00 0.00 24 1009.1
20260505173052 81 257 7.0 14.8 0.00 0.00 0.00 25 1009.1
20260505171548 81 229 7.8 14.8 0.00 0.00 0.00 25 1009.3
20260505170045 80 217 3.5 13.0 0.00 0.00 0.00 26 1009.5
20260505164543 80 229 5.2 12.2 0.00 0.00 0.00 25 1009.7
20260505163039 80 281 5.2 12.2 0.00 0.00 0.00 27 1009.9
20260505161538 78 269 6.1 9.6 0.00 0.00 0.00 26 1010.1
20260505153025 77 286 3.5 9.6 0.00 0.00 0.00 28 1010.6
20260505151524 76 212 2.6 11.3 0.00 0.00 0.00 28 1010.6
20260505140113 71 199 4.3 7.8 0.00 0.00 0.00 36 1010.8
20260505124534 65 286 0.9 3.5 0.00 0.00 0.00 43 1011.1
20260505123026 63 290 1.7 4.3 0.00 0.00 0.00 44 1011.1
20260505121521 62 274 0.9 6.1 0.00 0.00 0.00 46 1011.2
20260505120018 61 259 0.9 4.3 0.00 0.00 0.00 46 1011.1
20260505114513 61 269 2.6 7.0 0.00 0.00 0.00 46 1011.0
20260505113009 61 262 0.0 5.2 0.00 0.00 0.00 47 1010.9
20260505111510 60 238 1.7 6.1 0.00 0.00 0.00 47 1010.6